Retour au catalogue

FENGYUN 1C DEB

LostPO
NORAD 32305·DEBRIS·🇨🇳 China

Lancé May 10, 1999 depuis Taiyuan Satellite Launch Center

Loading…

Prochains Passages (prochaines 24 heures)

TLE

PériméSource: Space-Track

Époque: Aug 21, 2022, 20:14 UTC

1 32305U 99025CWW 22233.84371743  .00002280  00000-0  12802-2 0  9994
2 32305  97.9974 244.5779 0207615 339.5188  19.7744 14.01086184754142

Suivez FENGYUN 1C DEB en temps réel avec AllMySat

Download on the App Store